Home   Weather   Rio Branco   Past weeks
Flag for Brazil

Past Weather in Rio Branco, Acre, Brazil — Yesterday and Last 2 Weeks

Now
84 °F

Passing clouds.


Feels Like: 91 °F
Forecast: 90 / 68 °F
Wind: 5 mph from South

Location: Rio Branco Airport

Current Time: Jul 18, 2019 at 10:39:10 am

Latest Report: Jul 18, 2019 at 10:00 am


Visibility: N/A

Pressure: 30.04 "Hg

Humidity: 70%

Dew Point: 73 °F

Location of Rio BrancoLocation

Past Weather in Rio Branco — Graph

°F

Rio Branco Temperature Yesterday

Maximum temperature yesterday: 84 °F (at 4:00 pm)
Minimum temperature yesterday: 70 °F (at 12:00 am)
Average temperature yesterday: 74 °F

High & Low Weather Summary for the Past Weeks

 TemperatureHumidityPressure
High91 °F (Jul 14, 2:00 pm)100% (Jul 3, 10:00 pm)30.21 "Hg (Jul 3, 10:00 pm)
Low57 °F (Jul 7, 1:00 am)44% (Jul 7, 12:00 pm)29.77 "Hg (Jul 3, 3:00 pm)
Average75 °F82%29.98 "Hg
* Reported Jul 3 9:00 am — Jul 18 9:00 am, Rio Branco. Weather by CustomWeather, © 2019

Note: Actual official high and low records may vary slightly from our data, if they occured in-between our weather recording intervals... More about our weather records

Advertising

Rio Branco Weather History for the Previous 24 Hours

Scroll right to see more
 ConditionsComfort  
Time TempWeatherWind HumidityBarometerVisibility
9:00 am
Thu, Jul 18
81 °FPassing clouds.5 mph79%30.07 "HgN/A
8:00 am75 °FSunny.3 mph100%30.04 "Hg10 mi
7:00 am72 °FSunny.3 mph100%30.04 "Hg10 mi
6:00 am70 °FSunny.3 mph100%30.01 "Hg10 mi
5:00 am70 °FClear.1 mph100%30.01 "Hg10 mi
4:00 am68 °FClear.2 mph100%30.01 "Hg10 mi
3:00 am68 °FClear.No wind100%30.01 "Hg10 mi
2:00 am68 °FClear.1 mph100%30.01 "Hg4 mi
1:00 am70 °FClear.2 mph100%30.01 "Hg10 mi
12:00 am70 °FClear.No wind94%30.01 "Hg10 mi
11:00 pm
Wed, Jul 17
72 °FClear.No wind94%30.01 "Hg10 mi
10:00 pm72 °FClear.2 mph100%30.01 "Hg10 mi
9:00 pm73 °FPassing clouds.3 mph94%30.01 "HgN/A
8:00 pm73 °FPassing clouds.2 mph100%29.98 "HgN/A
7:00 pm75 °FPassing clouds.2 mph100%29.98 "HgN/A
6:00 pm77 °FPassing clouds.3 mph89%29.95 "HgN/A
5:00 pm81 °FPassing clouds.3 mph74%29.95 "HgN/A
4:00 pm84 °FScattered clouds.5 mph66%29.95 "HgN/A
3:00 pm82 °FPartly sunny.5 mph70%29.98 "HgN/A
2:00 pm82 °FPartly sunny.5 mph70%30.01 "HgN/A
1:00 pm81 °FPartly sunny.6 mph74%30.04 "HgN/A
12:00 pm79 °FPartly sunny.5 mph74%30.07 "HgN/A
11:00 am77 °FOvercast.6 mph79%30.09 "HgN/A
10:00 am75 °FPartly sunny.7 mph83%30.09 "HgN/A
Weather by CustomWeather, © 2019

See weather overview